Airfield :
LOGIN :

Register | Disclaimer

   EN    FR    IT 

 










Legend :    VFR   Marginal VFR   IFR   Intensive IFR   Very Intensive IFR
Visi :
Ceiling :
>= 8 km
>= 3000ft
5 to 8 km
1000 to 3000 ft
1500m to 5 km
500 to 1000 ft
800 to 1500m
200 to 500 ft
< 800m
< 200 ft
Symbols :   Thunderstorms  Fog  Heavy snow  Heavy precipitations  Wind > 20 kt
SIGMETs :     Misc.  Thunderstorms  Icing  Turbulence  Mountain Waves  Volcanic Ashes







- Airport Elevation : 156 ft
- IATA code : OMO


LQMO - Mostar

CURRENT METAR :
  • 210700Z VRB02KT 3000 RA BR FEW001 SCT035 BKN050 10/10 Q1010

EXPIRED METARs :
  • 210600Z VRB02KT 3300 BR RA SCT037 OVC050 10/09 Q1009
  • 210500Z VRB02KT 9999 4000SE FEW036 BKN050 10/09 Q1008

TAF TAF LQMO
Valid from the 21 at 06:00 until the 22 at 06:00 UTC


210500Z 2106/2206 04005KT 9999 SCT040 BKN060 TX14/2112Z TN07/2206Z
TEMPO 2112/2121 5000 RA
No reported NOTAMs for that airfield.



MET'MAP, your aeronautical weather chart ! - Copyright ORBIFLY December 2007 - Disclaimer

ORBIFLY MET'MAP TEAM :

Programming & Development : Alexandra Zaïnal
Concept & Development : Baudouin d'Aumeries
Co-Development & Prog : Marc-Olivier Méhu
Technical & hardware support : Manuel Goepfert

Contact : metmap@orbifly.com




SOURCES & CREDITS :

   NOAA